Wind_Speed
32 32 31 31 30 29 27 24 21 20 22 23 22 24 25 23 23 24 23 21 19 18 20 20 20 21 22 25 26 28 29 30 29 27 26 26 26 25
35 34 33 32 33 32 31 29 25 22 23 25 24 24 25 25 25 25 25 25 23 22 21 21 22 23 25 27 28 29 30 30 30 29 27 27 27 27
40 38 36 35 34 33 32 31 29 25 23 24 24 24 25 26 28 28 27 27 27 27 26 25 25 27 29 30 31 32 31 31 31 31 29 28 28 28
46 43 41 38 36 34 33 31 30 26 22 23 23 23 24 26 27 29 30 30 30 30 30 29 29 28 29 31 32 32 31 31 31 30 30 30 29 28
51 48 44 40 37 35 33 31 29 26 23 23 22 21 22 24 25 27 30 30 30 29 29 29 28 28 28 29 30 30 28 27 27 27 27 27 28 28
51 49 45 41 38 36 33 31 29 27 24 24 22 19 18 21 22 24 26 27 26 25 26 25 25 26 26 27 26 25 23 21 21 23 23 24 25 25
51 48 46 43 41 39 36 32 29 28 25 24 21 17 15 17 19 20 22 23 23 22 22 22 22 23 23 23 23 23 22 22 22 23 24 24 24 23
52 49 47 45 44 42 39 35 31 28 25 23 21 17 14 14 17 19 19 20 20 21 23 23 22 22 21 23 25 26 25 24 23 23 22 21 20 20
55 51 48 46 45 44 42 39 33 28 25 22 20 18 15 12 13 15 17 19 21 23 24 25 24 23 22 23 24 27 26 24 21 20 18 17 17 18
60 54 49 45 44 44 44 41 34 29 25 22 20 18 15 13 13 14 16 17 18 21 22 24 24 24 22 21 21 24 24 22 19 18 17 17 17 17
62 56 51 47 44 43 44 43 37 31 25 22 19 18 15 13 14 16 16 16 15 16 17 19 22 24 25 23 22 21 20 18 17 17 16 16 16 15
59 56 52 49 45 43 43 43 40 32 26 22 19 17 15 14 14 16 15 14 13 13 14 17 20 24 26 25 23 19 17 16 15 14 14 14 13 12
54 55 54 52 49 46 44 44 41 35 28 24 19 16 15 14 15 15 14 13 12 13 14 16 19 22 23 21 18 15 14 14 13 12 12 12 12 13
50 55 55 52 49 47 45 44 41 35 30 25 21 18 15 14 14 14 13 12 11 11 13 15 16 17 17 16 15 14 13 12 10 9 10 13 15 17
44 52 53 51 48 46 44 42 40 35 29 25 22 19 16 14 14 13 12 12 13 13 15 17 17 17 16 15 15 14 12 11 10 12 14 16 18 21
37 47 52 52 49 47 45 42 39 34 29 25 23 20 17 16 15 14 13 13 15 16 18 18 18 18 17 16 14 13 12 13 14 16 18 20 23 25
33 44 51 52 50 46 45 43 39 34 29 25 23 21 19 18 17 16 15 16 18 19 19 19 19 19 18 16 15 14 15 17 19 20 22 24 26 27
31 39 48 51 49 47 46 44 40 33 27 24 24 23 21 20 20 20 20 21 22 23 22 22 21 20 18 17 17 18 19 21 23 24 25 27 28 30
29 35 44 51 50 48 46 45 40 33 29 26 25 24 23 22 23 23 24 25 26 26 25 24 23 22 21 19 19 20 22 24 25 27 28 29 30 30
28 33 40 52 51 47 45 43 40 35 32 29 26 25 24 24 25 26 26 27 27 27 26 24 23 22 21 20 21 22 24 25 26 27 28 29 29 29
27 31 38 47 48 45 43 41 38 34 32 29 27 27 27 27 28 28 28 28 28 26 24 23 22 22 22 22 22 23 23 24 26 27 27 27 27 28
23 28 35 41 43 41 40 39 37 35 32 30 30 31 30 30 29 29 29 28 27 25 23 22 23 23 23 22 21 21 23 25 26 27 28 28 28 29
24 30 36 39 38 38 37 37 36 34 32 32 33 33 33 31 30 29 27 26 25 24 23 23 24 24 23 21 21 22 24 26 27 28 29 29 29 29
Wind_Direction
260 262 264 267 271 275 276 276 276 279 285 287 280 265 256 251 248 243 238 239 239 238 240 243 243 239 234 232 235 240 245 250 254 254 251 248 248 248
259 260 262 266 270 272 273 273 276 279 283 289 289 272 257 249 247 245 238 236 238 239 241 245 247 244 240 240 243 246 250 252 254 253 250 249 250 250
258 260 261 264 267 269 270 272 275 278 281 289 292 277 258 247 244 242 238 234 235 238 240 246 251 253 252 250 250 250 251 253 254 253 252 252 252 250
257 258 259 261 262 263 266 269 272 274 277 286 290 279 259 246 242 239 234 233 234 237 241 245 251 254 255 255 253 252 252 253 253 253 253 253 253 253
252 254 255 257 258 257 260 263 265 267 271 280 285 280 262 249 242 236 232 233 233 237 240 245 249 252 256 256 254 253 251 248 246 247 250 252 253 254
248 248 249 250 253 252 254 258 258 260 265 273 279 278 265 250 242 235 232 234 234 236 241 243 246 250 252 251 247 243 238 237 239 242 245 248 251 253
243 244 245 246 247 248 250 253 254 254 258 266 272 272 264 249 238 231 230 232 234 237 238 240 244 245 243 240 237 235 235 239 244 246 248 249 251 252
240 242 245 246 244 244 246 249 249 250 252 259 265 265 257 245 234 229 228 229 234 239 242 240 241 240 242 240 239 235 235 242 246 246 245 243 244 246
237 239 242 244 243 242 242 243 244 246 248 254 261 259 250 239 228 225 229 232 235 239 240 238 239 243 245 244 243 237 234 237 236 237 240 242 243 245
235 234 235 239 239 239 237 237 240 242 244 249 253 253 241 225 219 224 230 234 234 236 240 244 243 245 244 243 238 228 222 225 229 234 239 241 243 246
230 229 229 232 234 234 232 233 236 239 242 243 243 244 238 228 224 225 224 223 225 232 238 243 245 245 240 229 219 215 216 221 229 236 240 242 244 247
223 222 222 224 226 229 229 230 233 236 240 239 236 238 238 231 224 218 218 222 230 234 235 237 237 232 225 217 209 209 215 223 230 234 238 241 243 246
215 213 215 219 222 226 228 228 231 233 237 237 234 235 236 228 220 220 226 237 242 239 232 225 219 212 205 200 200 206 215 220 221 223 229 241 252 261
209 206 210 214 219 224 226 226 227 230 234 234 234 235 233 225 220 224 231 237 238 228 212 203 196 192 190 191 195 199 203 206 217 235 251 261 268 273
206 201 203 206 212 216 219 221 222 224 226 227 231 234 233 228 221 217 216 216 216 201 186 177 175 178 182 187 190 193 200 215 235 253 264 271 274 277
203 196 195 199 205 210 214 216 217 217 218 221 227 231 230 224 216 208 200 198 195 190 183 180 179 179 181 186 193 201 216 234 249 261 270 276 281 284
202 195 191 192 198 205 210 212 211 211 212 215 222 225 222 217 213 209 202 194 190 190 191 190 189 186 188 196 210 224 238 251 262 270 277 282 285 287
206 196 192 191 195 201 206 208 207 207 207 209 215 218 216 214 215 214 207 199 196 195 195 196 198 200 204 214 227 242 254 264 272 277 281 284 285 285
213 203 196 191 191 196 201 205 206 205 206 207 214 217 215 213 211 209 203 198 196 197 198 200 205 213 221 229 240 253 263 269 275 280 283 284 284 285
217 211 199 190 189 191 197 200 201 202 204 207 213 213 211 206 203 202 200 199 199 201 204 209 216 223 232 242 251 259 265 271 276 279 281 282 284 287
217 210 198 191 187 188 192 196 198 199 202 206 206 206 204 200 200 201 201 201 204 207 212 219 227 235 243 250 256 261 267 272 276 277 278 280 283 287
204 195 191 185 184 187 191 194 196 197 199 199 199 200 200 198 199 201 202 204 208 214 220 229 237 245 251 255 260 267 272 274 273 273 276 280 286 291
175 175 176 177 179 183 186 188 189 190 191 192 196 198 197 196 198 200 203 207 214 221 230 240 247 250 253 257 263 269 271 271 272 275 279 285 290 292
Height
5763 5764 5766 5767 5768 5768 5769 5770 5770 5768 5764 5762 5761 5760 5759 5761 5763 5765 5767 5770 5772 5774 5777 5779 5782 5785 5788 5792 5796 5799 5802 5805 5807 5809 5810 5812 5813 5815
5752 5754 5756 5757 5758 5760 5761 5762 5763 5763 5760 5756 5755 5754 5754 5754 5756 5759 5761 5764 5767 5769 5771 5774 5777 5780 5783 5786 5789 5792 5795 5798 5800 5802 5803 5805 5806 5808
5742 5744 5746 5748 5749 5750 5752 5753 5755 5756 5755 5751 5748 5747 5747 5747 5749 5751 5754 5757 5760 5763 5766 5769 5772 5775 5777 5780 5783 5785 5788 5790 5792 5793 5795 5797 5798 5800
5730 5733 5736 5739 5740 5741 5743 5744 5746 5748 5748 5745 5742 5740 5740 5741 5742 5744 5748 5750 5753 5757 5760 5763 5766 5768 5771 5773 5776 5778 5780 5782 5784 5785 5787 5788 5789 5791
5716 5721 5725 5728 5730 5732 5734 5736 5738 5740 5741 5740 5737 5734 5733 5734 5736 5738 5741 5744 5747 5751 5754 5757 5760 5762 5764 5766 5768 5771 5773 5775 5776 5778 5780 5782 5783 5785
5702 5707 5712 5716 5719 5722 5725 5727 5730 5732 5734 5733 5731 5729 5727 5728 5729 5731 5734 5738 5742 5745 5748 5751 5753 5756 5758 5759 5762 5764 5766 5768 5771 5773 5774 5776 5777 5778
5687 5693 5699 5704 5708 5712 5716 5719 5722 5725 5726 5726 5726 5724 5723 5722 5723 5726 5728 5732 5736 5739 5741 5744 5747 5749 5751 5753 5756 5758 5761 5763 5765 5766 5768 5769 5770 5771
5671 5679 5685 5691 5696 5701 5705 5710 5713 5717 5719 5720 5720 5720 5718 5717 5718 5720 5723 5726 5730 5733 5735 5738 5741 5743 5745 5747 5749 5751 5754 5756 5758 5760 5761 5763 5764 5765
5655 5664 5671 5678 5683 5689 5695 5700 5705 5709 5712 5714 5714 5714 5713 5713 5714 5716 5718 5720 5723 5725 5728 5731 5734 5736 5739 5740 5742 5744 5747 5750 5752 5754 5756 5758 5759 5760
5637 5648 5656 5664 5671 5677 5684 5690 5696 5701 5705 5708 5709 5709 5708 5708 5709 5711 5712 5714 5716 5718 5721 5723 5726 5729 5732 5734 5736 5738 5741 5745 5748 5750 5752 5754 5754 5755
5619 5631 5642 5651 5659 5666 5673 5681 5687 5693 5697 5701 5702 5703 5703 5703 5705 5706 5708 5709 5710 5712 5714 5715 5718 5722 5725 5728 5731 5734 5737 5740 5743 5745 5747 5748 5749 5750
5601 5615 5628 5638 5647 5655 5663 5671 5678 5684 5689 5693 5696 5697 5698 5698 5699 5701 5703 5704 5704 5705 5707 5709 5711 5714 5718 5721 5725 5729 5733 5736 5739 5741 5743 5744 5746 5747
5585 5600 5613 5625 5635 5644 5652 5661 5668 5675 5681 5686 5689 5691 5693 5694 5694 5696 5698 5699 5700 5701 5702 5704 5706 5709 5713 5717 5722 5726 5730 5733 5736 5738 5740 5742 5743 5743
5571 5586 5600 5612 5623 5632 5641 5650 5659 5667 5673 5678 5681 5684 5687 5689 5689 5691 5693 5694 5696 5698 5699 5701 5704 5708 5712 5716 5721 5725 5728 5731 5733 5736 5737 5738 5739 5739
5560 5574 5588 5601 5612 5622 5631 5640 5649 5658 5665 5670 5674 5677 5681 5683 5684 5686 5688 5691 5693 5695 5697 5700 5703 5707 5712 5716 5720 5723 5726 5729 5731 5732 5733 5734 5734 5734
5554 5564 5578 5591 5602 5612 5622 5631 5641 5649 5657 5662 5666 5671 5675 5678 5680 5682 5684 5688 5691 5694 5697 5701 5704 5707 5710 5714 5718 5721 5724 5726 5728 5728 5728 5727 5726 5726
5549 5557 5569 5581 5593 5603 5614 5623 5632 5641 5649 5656 5661 5665 5670 5674 5676 5678 5681 5685 5690 5693 5697 5700 5703 5705 5708 5712 5715 5718 5720 5721 5722 5722 5721 5720 5719 5718
5545 5552 5562 5573 5585 5595 5606 5616 5625 5634 5642 5649 5655 5660 5666 5670 5673 5675 5679 5683 5688 5691 5695 5698 5701 5704 5706 5708 5711 5712 5714 5714 5714 5714 5714 5713 5712 5711
5541 5547 5556 5566 5577 5588 5599 5609 5619 5628 5636 5643 5649 5655 5661 5665 5669 5672 5676 5680 5684 5689 5692 5696 5698 5701 5703 5704 5705 5706 5707 5707 5706 5706 5705 5704 5703 5701
5536 5543 5551 5561 5573 5583 5593 5603 5613 5622 5630 5637 5644 5651 5656 5660 5664 5668 5672 5677 5681 5685 5689 5692 5694 5696 5698 5699 5700 5700 5700 5699 5698 5697 5696 5695 5693 5692
5531 5538 5547 5557 5569 5579 5589 5599 5608 5617 5625 5632 5640 5647 5652 5656 5661 5665 5669 5674 5677 5681 5684 5687 5689 5691 5692 5693 5693 5693 5692 5691 5690 5689 5688 5686 5684 5682
5527 5534 5545 5555 5567 5577 5587 5596 5605 5613 5620 5628 5635 5642 5648 5654 5658 5662 5666 5670 5673 5676 5679 5682 5684 5685 5686 5686 5686 5685 5684 5683 5682 5680 5678 5677 5674 5671
5528 5536 5546 5557 5567 5577 5586 5595 5602 5610 5617 5625 5632 5639 5645 5650 5655 5659 5663 5666 5669 5672 5675 5677 5678 5679 5679 5679 5678 5677 5676 5674 5673 5671 5669 5667 5664 5661